Weather History for Fredericksburg, TX

Change the Weather History Date:

Monday, January 20, 2014

  Actual Average (KSAT) Record (KSAT)
Temperature  
Mean Temperature 58 °F 52 °F  
Max Temperature 77 °F 63 °F 83 °F (1972)
Min Temperature 40 °F 41 °F 19 °F (1943)
Degree Days  
Heating Degree Days 6 13  
Month to date heating degree days 277  
Since 1 July heating degree days 879  
Cooling Degree Days 0 0  
Month to date cooling degree days 0  
Year to date cooling degree days 0  
Growing Degree Days 8 (Base 50)    
Moisture  
Dew Point 32 °F    
Average Humidity 43    
Maximum Humidity 93    
Minimum Humidity 14    
Precipitation  
Precipitation 0.00 in 0.06 in 2.36 in (1968)
Month to date precipitation 1.08  
Year to date precipitation 1.08  
Snow  
Snow 0.00 in - - ()
Month to date snowfall  
Since 1 July snowfall  
Snow Depth -    
Sea Level Pressure  
Sea Level Pressure 30.03 in    
Wind  
Wind Speed 7 mph (West)    
Max Wind Speed 22 mph    
Max Gust Speed 31 mph    
Visibility 10 miles    
Events      
T = Trace of Precipitation, MM = Missing Value Source: NWS Daily Summary

Daily Weather History Graph

Daily Weather History Graph

Search for Another Location

Airport:

Trip Planner

Search our weather history database for the weather conditions in past years. The results will help you decide how hot, cold, wet, or windy it might be!

Date:

Astronomy

Jan. 20, 2014 Rise Set
Actual Time 7:31 AM CST 6:02 PM CST
Civil Twilight 7:05 AM CST 6:27 PM CST
Nautical Twilight 6:36 AM CST 6:56 PM CST
Astronomical Twilight 6:08 AM CST 7:25 PM CST
Moon 10:15 PM CST (1/20) 9:52 AM CST (1/20)
Length of Visible Light 11h 21m
Length of Day
10h 30m
Waning Gibbous, 82% of the Moon is Illuminated
Jan 20
Waning Gibbous
Jan 23
Last Quarter
Jan 30
New
Feb 6
First Quarter
Feb 14
Full

Hourly Weather History & Observations

Time (CST) Temp. Windchill Dew Point Humidity Pressure Visibility Wind Dir Wind Speed Gust Speed Precip Events Conditions
12:15 AM 43.5 °F 41.9 °F 30.9 °F 61% 30.09 in 10.0 mi West 3.5 mph - N/A   Clear
12:35 AM 44.4 °F 42.9 °F 30.6 °F 58% 30.08 in 10.0 mi West 3.5 mph - N/A   Clear
12:55 AM 48.6 °F - 29.8 °F 48% 30.08 in 10.0 mi WSW 5.8 mph - N/A   Clear
1:15 AM 49.3 °F - 30.0 °F 48% 30.07 in 10.0 mi WSW 5.8 mph - N/A   Clear
1:35 AM 44.4 °F 42.0 °F 30.9 °F 59% 30.06 in 10.0 mi WSW 4.6 mph - N/A   Clear
1:55 AM 44.6 °F 42.2 °F 30.6 °F 58% 30.06 in 10.0 mi WSW 4.6 mph - N/A   Clear
2:15 AM 42.6 °F - 30.2 °F 61% 30.06 in 10.0 mi Calm Calm - N/A   Clear
2:35 AM 44.2 °F 42.7 °F 30.6 °F 59% 30.05 in 10.0 mi SW 3.5 mph - N/A   Clear
2:55 AM 40.1 °F 38.0 °F 31.1 °F 70% 30.05 in 10.0 mi WNW 3.5 mph - N/A   Clear
3:15 AM 40.1 °F - 30.0 °F 67% 30.04 in 10.0 mi Calm Calm - N/A   Clear
3:35 AM 43.7 °F 42.1 °F 31.1 °F 61% 30.04 in 10.0 mi WSW 3.5 mph - N/A   Clear
3:55 AM 49.3 °F - 32.0 °F 51% 30.04 in 10.0 mi WSW 3.5 mph - N/A   Clear
4:15 AM 49.8 °F - 33.6 °F 54% 30.04 in 10.0 mi WSW 3.5 mph - N/A   Clear
4:35 AM 49.8 °F - 35.8 °F 59% 30.03 in 10.0 mi WSW 4.6 mph - N/A   Clear
4:55 AM 49.6 °F - 38.1 °F 65% 30.03 in 10.0 mi WSW 6.9 mph - N/A   Clear
5:15 AM 49.6 °F - 39.2 °F 67% 30.02 in 10.0 mi SW 5.8 mph - N/A   Clear
5:35 AM 48.9 °F - 40.1 °F 72% 30.02 in 10.0 mi SW 6.9 mph - N/A   Clear
5:55 AM 48.2 °F - 40.5 °F 75% 30.02 in 10.0 mi SW 5.8 mph - N/A   Clear
6:15 AM 47.3 °F - 39.7 °F 75% 30.02 in 10.0 mi West 3.5 mph - N/A   Clear
6:35 AM 45.7 °F - 40.1 °F 81% 30.02 in 10.0 mi Calm Calm - N/A   Clear
6:55 AM 44.8 °F - 40.1 °F 84% 30.02 in 10.0 mi Calm Calm - N/A   Clear
7:15 AM 47.5 °F - 42.1 °F 82% 30.02 in 10.0 mi WSW 4.6 mph - N/A   Clear
7:35 AM 46.8 °F - 42.1 °F 84% 30.02 in 10.0 mi Calm Calm - N/A   Clear
7:55 AM 42.8 °F - 39.4 °F 88% 30.02 in 10.0 mi Calm Calm - N/A   Clear
8:15 AM 42.3 °F - 40.5 °F 93% 30.02 in 10.0 mi Calm Calm - N/A   Clear
8:35 AM 49.5 °F - 44.8 °F 84% 30.03 in 10.0 mi Calm Calm - N/A   Clear
8:55 AM 52.9 °F - 45.9 °F 77% 30.02 in 10.0 mi SW 4.6 mph - N/A   Clear
9:15 AM 56.8 °F - 47.1 °F 70% 30.02 in 10.0 mi SW 9.2 mph - N/A   Clear
9:35 AM 59.4 °F - 47.5 °F 65% 30.03 in 10.0 mi SW 12.7 mph 19.6 mph N/A   Clear
9:55 AM 61.0 °F - 47.7 °F 62% 30.03 in 10.0 mi SW 18.4 mph - N/A   Clear
10:15 AM 62.6 °F - 47.5 °F 58% 30.03 in 10.0 mi SW 16.1 mph 23.0 mph N/A   Clear
10:35 AM 64.4 °F - 46.9 °F 53% 30.03 in 10.0 mi SW 17.3 mph 21.9 mph N/A   Clear
10:55 AM 66.0 °F - 45.7 °F 48% 30.02 in 10.0 mi SW 16.1 mph 20.7 mph N/A   Clear
11:15 AM 68.0 °F - 44.2 °F 42% 30.01 in 10.0 mi SW 11.5 mph 21.9 mph N/A   Clear
11:35 AM 68.9 °F - 42.8 °F 39% 30.00 in 10.0 mi SW 16.1 mph - N/A   Clear
11:55 AM 70.5 °F - 42.8 °F 37% 29.99 in 10.0 mi SW 15.0 mph 19.6 mph N/A   Clear
12:15 PM 70.9 °F - 40.8 °F 34% 29.97 in 10.0 mi WSW 12.7 mph - N/A   Clear
12:35 PM 73.0 °F - 38.5 °F 29% 29.96 in 10.0 mi WSW 19.6 mph 23.0 mph N/A   Clear
12:55 PM 73.9 °F - 33.6 °F 23% 29.94 in 10.0 mi WSW 11.5 mph - N/A   Clear
1:15 PM 74.8 °F - 33.1 °F 22% 29.93 in 10.0 mi WSW 12.7 mph 20.7 mph N/A   Clear
1:35 PM 74.8 °F - 29.8 °F 19% 29.92 in 10.0 mi West 15.0 mph 18.4 mph N/A   Clear
1:55 PM 75.0 °F - 31.5 °F 20% 29.91 in 10.0 mi WNW 11.5 mph 17.3 mph N/A   Clear
2:15 PM 75.6 °F - 28.6 °F 18% 29.91 in 10.0 mi West 13.8 mph 23.0 mph N/A   Clear
2:35 PM 75.7 °F - 27.0 °F 16% 29.90 in 10.0 mi West 15.0 mph 21.9 mph N/A   Clear
2:55 PM 76.5 °F - 25.3 °F 15% 29.90 in 10.0 mi West 11.5 mph - N/A   Clear
3:15 PM 76.6 °F - 25.2 °F 15% 29.90 in 10.0 mi West 10.4 mph 18.4 mph N/A   Clear
3:35 PM 77.0 °F - 23.9 °F 14% 29.90 in 10.0 mi West 12.7 mph 18.4 mph N/A   Clear
3:55 PM 77.5 °F - 23.9 °F 14% 29.91 in 10.0 mi West 8.1 mph 16.1 mph N/A   Clear
4:15 PM 76.8 °F - 24.1 °F 14% 29.92 in 10.0 mi WNW 13.8 mph - N/A   Clear
4:35 PM 75.9 °F - 24.3 °F 15% 29.93 in 10.0 mi WNW 15.0 mph - N/A   Clear
4:55 PM 75.2 °F - 25.0 °F 15% 29.94 in 10.0 mi NW 10.4 mph - N/A   Clear
5:15 PM 74.3 °F - 25.5 °F 16% 29.95 in 10.0 mi WNW 8.1 mph - N/A   Clear
5:35 PM 72.3 °F - 26.6 °F 18% 29.96 in 10.0 mi NW 5.8 mph - N/A   Clear
5:55 PM 70.2 °F - 24.4 °F 18% 29.97 in 10.0 mi North 10.4 mph 17.3 mph N/A   Clear
6:15 PM 67.6 °F - 24.1 °F 19% 29.99 in 10.0 mi NNW 12.7 mph - N/A   Clear
6:35 PM 66.6 °F - 22.8 °F 19% 30.01 in 10.0 mi North 10.4 mph - N/A   Clear
6:55 PM 63.1 °F - 23.0 °F 22% 30.02 in 10.0 mi North 6.9 mph - N/A   Clear
7:15 PM 61.2 °F - 23.0 °F 23% 30.04 in 10.0 mi NNW 4.6 mph - N/A   Clear
7:35 PM 59.9 °F - 24.1 °F 25% 30.05 in 10.0 mi NNW 10.4 mph - N/A   Clear
7:55 PM 62.4 °F - 23.5 °F 23% 30.06 in 10.0 mi North 10.4 mph - N/A   Clear
8:15 PM 62.2 °F - 23.0 °F 22% 30.07 in 10.0 mi North 15.0 mph 18.4 mph N/A   Clear
8:35 PM 61.7 °F - 22.8 °F 23% 30.09 in 10.0 mi North 15.0 mph 21.9 mph N/A   Clear
8:55 PM 60.3 °F - 22.5 °F 23% 30.10 in 10.0 mi North 9.2 mph - N/A   Clear
9:15 PM 58.5 °F - 22.6 °F 25% 30.11 in 10.0 mi North 9.2 mph - N/A   Clear
9:35 PM 59.4 °F - 21.7 °F 23% 30.12 in 10.0 mi North 15.0 mph 23.0 mph N/A   Clear
9:55 PM 60.3 °F - 21.6 °F 23% 30.14 in 10.0 mi North 19.6 mph 25.3 mph N/A   Clear
10:15 PM 59.4 °F - 22.1 °F 24% 30.16 in 10.0 mi North 21.9 mph 27.6 mph N/A   Clear
10:35 PM 57.2 °F - 22.5 °F 26% 30.18 in 10.0 mi North 19.6 mph 25.3 mph N/A   Clear
10:55 PM 57.0 °F - 23.0 °F 27% 30.19 in 10.0 mi North 20.7 mph 27.6 mph N/A   Clear
11:15 PM 56.5 °F - 23.9 °F 28% 30.21 in 10.0 mi North 17.3 mph 31.1 mph N/A   Clear
11:35 PM 55.2 °F - 24.4 °F 30% 30.22 in 10.0 mi North 15.0 mph 25.3 mph N/A   Clear
11:55 PM 54.3 °F - 24.6 °F 32% 30.23 in 10.0 mi North 17.3 mph 25.3 mph N/A   Clear